Regional Weather Roundup
Issued by NWS Northern Indiana

Home | Current Version | Previous Version | Graphics & Text | Print | Product List | Glossary On
Versions: 1 2 3 4 5 6 7 8 9 10 11 12 13 14 15 16 17 18 19 20 21 22 23 24 25 26 27 28 29 30 31 32 33 34 35 36 37 38 39 40 41 42 43 44 45 46 47 48 49 50
713
ASUS43 KIWX 272110
RWRIWX

KIWX WEATHER ROUNDUP
NATIONAL WEATHER SERVICE NORTHERN INDIANA
500 PM EDT SAT MAY 27 2017

NOTE: "FAIR" INDICATES FEW OR NO CLOUDS BELOW 12,000 FEET WITH NO
SIGNIFICANT WEATHER AND/OR OBSTRUCTIONS TO VISIBILITY.

* THESE STATIONS ARE NOT UNDER NWS QUALITY CONTROL. THEY ALSO MAY NOT
  REPORT WEATHER SUCH AS PRECIPITATION OR FOG.

INZ001>027-272200-
NORTHERN INDIANA

CITY           SKY/WX    TMP DP  RH WIND       PRES   REMARKS
GARY*          PTSUNNY   66  55  68 NE8       29.87F
VALPARAISO     MOSUNNY   74  63  68 E3        29.86F
MICHIGAN CITY* SUNNY     66  59  77 N6        29.88F
LAPORTE*       PTSUNNY   73  62  68 E5        29.88F
KNOX*          CLOUDY    70  52  52 NE3       29.87F
SOUTH BEND     PTSUNNY   72  61  68 CALM      29.88F
ELKHART*       PTSUNNY   73  59  60 CALM      29.88F
GOSHEN         CLOUDY    73  59  61 CALM      29.88F
MONTICELLO*    CLOUDY    70  61  73 CALM      29.87F
LOGANSPORT*    PTSUNNY   70  61  73 N5        29.87F
ROCHESTER*     MOSUNNY   73  63  68 W3        29.88F
WARSAW*        CLOUDY    72  61  68 CALM      29.88F
ANGOLA*        CLOUDY    72  63  73 SE5       29.89F
FORT WAYNE     CLOUDY    74  63  68 VRB3      29.87S
HUNTINGTON*    CLOUDY   N/A N/A N/A CALM      29.86F
PERU/GRISSOM   MOSUNNY   73  63  68 NW5       29.86F

$$
INZ028>050-272200-
CENTRAL INDIANA

CITY           SKY/WX    TMP DP  RH WIND       PRES   REMARKS
LAFAYETTE      MOSUNNY   70  63  78 N7        29.86F
KOKOMO*        CLOUDY    73  64  73 NE5       29.88F
MUNCIE*        MOSUNNY   77  64  64 NW7       29.85F
INDIANAPOLIS   MOSUNNY   78  63  59 NW3       29.85F

$$
MIZ043>046-050>051-056>058-064>065-071>073-077>080-272200-
SOUTHWEST LOWER MICHIGAN

CITY           SKY/WX    TMP DP  RH WIND       PRES   REMARKS
BATTLE CREEK   CLOUDY    73  58  59 CALM      29.91R
BENTON HARBOR  SUNNY     66  53  63 NW8       29.89F
COLDWATER*     CLOUDY    71  60  69 CALM      29.90F
HILLSDALE*     CLOUDY    70  55  60 SE5       29.90F
HOLLAND        SUNNY     71  52  50 W12       29.91S
GRAND RAPIDS   PTSUNNY   74  57  55 S8        29.89S
KALAMAZOO      CLOUDY    74  56  53 VRB3      29.90S
STURGIS*       CLOUDY    72  60  65 CALM      29.89S
THREE RIVERS*  CLOUDY    72  59  62 CALM      29.90S

$$
OHZ001>008-015>018-024>025-272200-
NORTHWEST OHIO

CITY           SKY/WX    TMP DP  RH WIND       PRES   REMARKS
WAUSEON*       CLOUDY    73  59  60 E7        29.89F
DEFIANCE       CLOUDY    72  60  66 NE8       29.88F
FINDLAY        CLOUDY    75  61  61 NE9       29.86F
TOLEDO EXPRESS PTSUNNY   72  56  57 E9        29.89S
TOLEDO METCALF SUNNY     73  54  51 E13       29.90S
LIMA           CLOUDY    75  63  66 CALM      29.86F

$$
AND FOR LAKE MICHIGAN COASTAL AND OPEN LAKE BUOY OBSERVATIONS

STATION/POSITION TEMP    WIND        PRES    VSBY  WAVE
                 AIR SEA DIR/SP/G                  HT/PER
                 (F)     (DEG/KT/KT) (MB)    (MI)  (FT/S)
CALUMET HARBOR    59      40/  6/  9 1011.0F
MICHIGAN CITY     54      30/  5/  5   N/A
BURNS HARBOR      57      50/  7/  8 1012.5F
SOUTH LAKE BUOY   52 50  320/  4/  4 1013.6          0
4 MI NW BRIDGMAN  58 60   50/  8/ 10 1012.4          1/ 2
MICHIGAN CITY     54 57   60/  6/  6   N/A           1/ 2

$$
&&




USA.gov is the U.S. government's official web portal to all federal, state and local government web resources and services.